Regional Weather Roundup
Issued by NWS

Home | Current Version | Previous Version | Graphics & Text | Print | Product List | Glossary On
Versions: 1 2 3 4 5 6 7 8 9 10 11 12 13 14 15 16 17 18 19 20 21 22 23 24 25 26 27 28 29 30 31 32 33 34 35 36 37 38 39 40 41 42 43 44 45 46 47 48 49 50
000
ASUS44 KMEG 250710
RWRTN
TENNESSEE HOURLY STATE WEATHER ROUNDUP
NATIONAL WEATHER SERVICE MEMPHIS TN
200 AM CDT MON MAY 25 2015

TNZ002-004-019-021-049-052-054-088>092-250800-
WEST TENNESSEE

CITY           SKY/WX    TMP DP  RH WIND       PRES   REMARKS
MEMPHIS INTL   LGT RAIN  70  67  90 S10       30.03S
NWS MEMPHIS      N/A     69 N/A N/A MISG        N/A
JACKSON        LGT RAIN  69  66  90 S9        30.05F
DYERSBURG      CLOUDY    68  54  60 S6        30.03F
PARIS          CLOUDY    64  64 100 SW12      30.08S
LEXINGTON      CLOUDY    70  66  88 S9        30.06F
$$

TNZ008-025-027-028-033-062-065-066-250800-
NORTH MIDDLE TENNESSEE

CITY           SKY/WX    TMP DP  RH WIND       PRES   REMARKS
NASHVILLE      MOCLDY    72  63  73 S13G21    30.11S
CLARKSVILLE    CLOUDY    69  67  93 S9        30.06F
SMYRNA         PTCLDY    69  64  84 S5        30.12F
COOKEVILLE     CLEAR     72  57  60 S8        30.15F
CROSSVILLE     PTCLDY    69  54  58 S7        30.21F
$$

TNZ061-075-076-078-094-096-097-250800-
SOUTH MIDDLE TENNESSEE

CITY           SKY/WX    TMP DP  RH WIND       PRES   REMARKS
FAYETTEVILLE   MOCLDY   N/A N/A N/A MISG      30.14S
TULLAHOMA      PTCLDY    70  59  68 SE8       30.16S
WINCHESTER     CLEAR     72  57  60 S9        30.16S
MCMINNVILLE    CLEAR     73  57  56 VRB6      30.15F
COLUMBIA       CLOUDY    70  66  88 CALM      30.09F
SHELBYVILLE    PTCLDY    72  63  73 SE12      30.14S
$$

TNZ017-018-042-046-047-250800-
NORTHEAST TENNESSEE

CITY           SKY/WX    TMP DP  RH WIND       PRES   REMARKS
TRI CITIES     PTCLDY    58  51  78 N3        30.26S
ELIZABETHTON   SUNNY     54  50  87 CALM      30.27S
$$

TNZ012-013-036-069-073-074-250800-
CENTRAL EAST TENNESSEE

CITY           SKY/WX    TMP DP  RH WIND       PRES   REMARKS
KNOXVILLE      NOT AVBL
OAK RIDGE      CLEAR     66  55  67 CALM      30.22F
GATLINBURG     SUNNY     57  52  82 CALM      30.21S
MORRISTOWN     SUNNY     61  54  77 CALM      30.23F
$$

TNZ083-085-099-250800-
SOUTHEAST TENNESSEE

CITY           SKY/WX    TMP DP  RH WIND       PRES   REMARKS
CHATTANOOGA    CLEAR     72  56  57 S7        30.21S
$$

SKY/WX REPORTED AS FAIR MEANS FEW OR NO CLOUDS BELOW
12 THOUSAND FEET.




USA.gov is the U.S. government's official web portal to all federal, state and local government web resources and services.